EW4987 Weather Reports


Display with metric or nautical units.
time (UTC)temp
F
wind
direction
speed
MPH
gust
MPH
rain 1hr
in
rain 24hr
in
rain mn
in
humidity
%
barometer
mb
20260507163041 57 206 0.0 0.0 0.00 0.00 0.00 39 1014.9
20260507161539 58 173 0.0 0.0 0.00 0.00 0.00 40 1015.1
20260507160054 56 184 0.0 0.0 0.00 0.00 0.00 39 1015.4
20260507154527 54 200 0.0 0.0 0.00 0.00 0.00 40 1015.6
20260507153023 55 169 0.0 0.0 0.00 0.00 0.00 39 1015.8
20260507151518 53 175 0.0 0.0 0.00 0.00 0.00 42 1016.2
20260507150013 50 115 0.0 0.0 0.00 0.00 0.00 45 1016.5
20260507144523 48 131 0.0 0.0 0.00 0.01 0.00 44 1016.7
20260507143006 46 142 0.0 0.0 0.00 0.01 0.00 35 1017.1
20260507141502 40 360 0.0 0.0 0.00 0.01 0.00 1 1017.3
20260507134601 39 193 0.0 0.0 0.00 0.01 0.00 1 1017.5
20260507133049 38 234 0.0 0.0 0.00 0.01 0.00 1 1017.6
20260507131543 37 233 0.0 0.0 0.00 0.01 0.00 1 1017.5
20260507130042 38 233 0.0 0.0 0.00 0.01 0.00 1 1017.7
20260507124536 38 233 0.0 0.0 0.00 0.01 0.00 11 1017.6
20260507123039 39 217 0.0 0.0 0.00 0.01 0.00 24 1017.5
20260507121526 40 209 0.0 0.0 0.00 0.01 0.00 27 1017.3
20260507120021 41 215 0.0 0.0 0.00 0.01 0.00 31 1017.0
20260507114516 40 187 0.0 0.0 0.00 0.01 0.00 31 1017.2
20260507113015 42 150 0.0 0.0 0.00 0.01 0.00 39 1017.2
20260507111510 42 158 0.0 0.0 0.00 0.01 0.00 41 1017.1
20260507110005 42 148 0.0 0.0 0.00 0.01 0.00 41 1017.3
20260507104602 43 132 0.0 0.0 0.00 0.01 0.00 42 1017.4
20260507103055 42 171 0.0 0.0 0.00 0.01 0.00 39 1017.7
20260507101602 43 106 0.0 0.0 0.00 0.01 0.00 38 1017.8
20260507100046 42 142 0.0 0.0 0.00 0.01 0.00 36 1017.8
20260507094543 42 132 0.0 0.0 0.00 0.01 0.00 34 1018.1
20260507093044 42 174 0.0 0.0 0.00 0.01 0.00 33 1018.4
20260507091537 42 142 0.0 0.0 0.00 0.01 0.00 30 1018.3
20260507090028 42 142 0.0 0.0 0.00 0.01 0.00 29 1018.6
20260507084523 42 171 0.0 0.0 0.00 0.02 0.00 24 1018.7
20260507083026 41 5 0.0 0.0 0.00 0.02 0.00 22 1018.9
20260507081527 43 127 0.0 0.0 0.00 0.02 0.00 29 1018.8
20260507080013 42 146 0.0 0.0 0.00 0.02 0.00 27 1018.9
20260507074505 42 161 0.0 0.0 0.00 0.05 0.00 24 1019.1
20260507073002 41 148 0.0 0.0 0.00 0.05 0.00 9 1019.3
20260507071606 39 207 0.0 0.0 0.00 0.05 0.00 3 1019.3
20260507070054 40 207 0.0 0.0 0.00 0.05 0.00 3 1019.2
20260507064605 38 176 0.0 0.0 0.00 0.05 0.00 7 1019.0
20260507063049 39 176 0.0 0.0 0.00 0.05 0.00 34 1019.0
20260507060038 40 176 0.0 0.0 0.00 0.05 0.00 40 1018.8
20260507054539 41 176 0.0 0.0 0.00 0.08 0.05 46 1018.8
20260507053030 41 176 0.0 0.0 0.00 0.08 0.05 44 1018.8
20260507051525 42 176 0.0 0.0 0.00 0.08 0.05 47 1018.5
20260507050020 43 176 0.0 0.0 0.00 0.08 0.05 50 1018.6
20260507044516 44 167 0.0 0.0 0.00 0.08 0.05 51 1018.5
20260507043011 45 169 0.0 0.0 0.00 0.08 0.05 50 1018.4
20260507041549 46 175 0.0 0.0 0.00 0.08 0.05 49 1018.3
20260507040002 45 175 0.0 0.0 0.00 0.08 0.05 49 1018.4
20260507034607 45 176 0.0 0.0 0.00 0.08 0.05 49 1018.4
20260507033054 45 176 0.0 0.0 0.00 0.08 0.05 47 1018.3
20260507031550 47 176 0.0 0.0 0.00 0.08 0.05 48 1018.2
20260507030045 46 177 0.0 0.0 0.00 0.08 0.05 47 1017.6
20260507024540 47 265 0.0 0.0 0.00 0.09 0.05 43 1017.5
20260507023036 50 265 0.0 0.0 0.00 0.09 0.05 46 1017.3
20260507021531 53 265 0.0 0.0 0.00 0.09 0.05 40 1017.3
20260507020029 54 265 0.0 0.0 0.00 0.09 0.05 36 1017.3
20260507014539 56 265 0.0 0.0 0.00 0.09 0.05 35 1017.4
20260507013034 56 263 0.0 0.0 0.00 0.09 0.05 33 1017.4
20260507011529 56 263 0.0 0.0 0.00 0.09 0.05 33 1017.2
20260507010009 57 255 0.0 0.0 0.00 0.09 0.05 32 1017.2
20260507004504 57 290 0.0 0.0 0.00 0.09 0.05 29 1017.2
20260507003101 57 285 0.0 0.0 0.00 0.09 0.05 30 1017.0
20260507001619 58 273 0.0 0.0 0.00 0.09 0.05 32 1016.9
20260507000051 58 323 0.0 0.0 0.00 0.09 0.05 32 1016.7
20260506234547 58 274 0.0 0.0 0.00 0.09 0.05 28 1016.7
20260506233046 57 77 0.0 0.0 0.00 0.09 0.05 31 1016.6
20260506231543 57 301 0.0 0.0 0.00 0.09 0.05 32 1016.6
20260506230033 56 327 0.0 0.0 0.00 0.09 0.05 34 1017.0
20260506224529 56 322 0.0 0.0 0.00 0.09 0.05 37 1017.0
20260506223025 56 336 0.0 0.0 0.00 0.09 0.05 35 1017.4
20260506221520 55 298 0.0 0.0 0.00 0.09 0.05 37 1017.7
20260506220016 54 355 0.0 0.0 0.00 0.09 0.05 36 1018.1
20260506214511 54 78 0.0 0.0 0.00 0.09 0.05 34 1018.3
20260506213011 54 317 0.0 0.0 0.00 0.09 0.05 36 1018.4
20260506211502 53 275 0.0 0.0 0.00 0.09 0.05 40 1018.5
20260506210116 52 315 0.0 0.0 0.00 0.09 0.05 38 1018.5
20260506204554 51 15 0.0 0.0 0.00 0.13 0.05 38 1018.7
20260506203050 50 319 0.0 0.0 0.00 0.13 0.05 41 1018.9
20260506201547 49 236 0.0 0.0 0.00 0.13 0.05 38 1018.9
20260506194538 49 284 0.0 0.0 0.00 0.13 0.05 42 1019.1
20260506193031 48 257 0.0 0.0 0.00 0.13 0.05 44 1019.2
20260506191526 47 266 0.0 0.0 0.00 0.13 0.05 46 1019.5
20260506190021 46 293 0.0 0.0 0.00 0.13 0.05 44 1019.7
20260506184519 46 311 0.0 0.0 0.00 0.16 0.05 45 1019.8
20260506183013 45 277 0.0 0.0 0.00 0.16 0.05 45 1019.9
20260506181509 45 314 0.0 0.0 0.00 0.16 0.05 40 1019.8
20260506180005 43 323 0.0 0.0 0.00 0.16 0.05 43 1019.8
20260506174604 43 286 0.0 0.0 0.00 0.21 0.05 22 1019.9
20260506173116 43 289 0.0 0.0 0.00 0.21 0.05 19 1019.8
20260506171559 43 304 0.0 0.0 0.00 0.21 0.05 14 1019.7
20260506170046 41 320 0.0 0.0 0.00 0.21 0.05 8 1019.6
20260506164542 40 317 0.0 0.0 0.00 0.24 0.05 4 1019.5